Theta_e
344 345 346 346 344 345 348 350 354 363 356 352 350 352 349 355 354 355 362 364 364 364 364 361 362 360 356 352 358 355 353 344 347 341 345 342 343 346 344 346 347 348 348
341 344 345 345 345 345 348 354 357 362 357 352 355 354 356 352 354 355 362 364 363 366 362 365 360 360 357 359 358 356 351 348 347 344 347 333 336 341 343 346 346 348 349
341 343 344 345 345 344 348 353 359 361 360 359 356 356 358 358 352 357 357 361 362 363 364 364 356 362 361 356 360 359 360 345 343 353 345 336 334 341 342 346 346 350 348
343 343 345 345 345 344 348 355 357 362 360 363 355 361 351 348 350 354 354 359 362 362 363 363 364 365 357 363 360 359 362 359 344 341 344 349 349 339 341 343 346 349 348
341 342 344 346 347 346 346 350 359 361 361 361 361 355 357 350 350 350 366 373 370 363 360 364 364 364 360 364 362 362 363 354 352 341 341 349 344 351 343 342 341 345 347
341 343 346 347 348 349 347 348 358 361 362 362 360 364 360 359 348 352 353 353 356 359 363 362 365 367 365 363 362 364 363 365 360 352 347 342 341 343 341 340 343 342 345
342 342 344 345 347 348 349 350 358 361 362 361 359 362 366 366 366 362 351 354 349 350 366 369 369 364 368 366 368 368 364 362 359 362 350 346 346 346 343 341 339 339 343
342 343 345 346 347 349 354 355 358 360 362 360 360 361 366 353 352 362 353 350 349 351 372 365 364 364 366 363 368 362 360 367 360 362 365 355 349 350 348 344 342 338 339
342 344 345 346 347 351 356 357 359 361 362 360 361 362 363 361 355 366 368 357 365 353 357 358 364 364 364 367 373 360 362 364 364 364 366 360 353 352 351 350 347 341 335
340 342 345 347 348 349 352 358 360 362 363 360 363 361 362 364 365 368 370 366 367 366 360 360 359 362 365 366 373 365 369 366 360 360 371 369 357 359 355 354 351 348 344
337 340 343 347 349 350 350 352 357 361 362 361 362 362 362 361 364 362 367 367 369 370 368 365 362 361 362 366 371 371 368 368 369 367 366 367 373 358 354 354 354 352 349
334 337 341 345 348 349 350 351 352 353 358 361 362 362 364 364 363 363 363 368 368 371 371 369 367 363 362 367 367 361 361 361 362 363 369 365 360 373 372 359 368 359 363
331 333 338 343 346 349 353 352 352 352 354 359 359 362 364 364 364 365 365 366 368 370 368 370 370 367 364 365 367 367 364 360 362 365 367 367 370 372 365 371 363 358 361
330 334 337 341 347 351 357 358 354 353 354 354 356 360 364 365 364 366 367 368 370 370 370 371 371 370 367 364 361 364 367 367 362 365 367 367 368 371 373 369 373 369 364
333 332 336 339 346 350 359 359 356 359 357 359 357 360 366 367 367 366 368 369 370 370 371 371 371 369 365 359 363 363 364 367 365 365 365 367 364 352 357 361 369 373 364
333 336 338 340 343 348 352 359 359 360 361 361 358 362 366 368 367 367 368 369 370 370 371 371 370 368 359 342 339 355 360 363 364 364 367 369 359 354 343 342 343 353 366
332 336 339 342 344 343 351 355 361 360 361 364 362 363 366 367 368 368 369 369 370 370 370 370 370 369 370 336 334 339 360 362 363 365 366 362 352 356 367 347 340 342 338
329 331 336 341 344 344 344 352 355 363 363 363 365 364 366 367 369 370 369 371 370 370 370 370 371 371 368 335 331 335 360 360 363 365 368 368 364 363 364 367 366 365 366
328 330 333 339 345 347 348 349 355 359 362 363 365 365 366 367 369 368 369 371 370 371 370 372 372 371 370 332 328 336 357 358 363 366 367 367 367 351 339 362 361 362 362
327 329 333 341 344 348 351 349 348 358 361 362 365 368 368 368 369 370 370 371 371 370 364 367 372 359 372 337 326 336 356 358 355 363 367 341 355 339 332 362 364 361 363
323 328 332 339 348 352 357 356 353 355 362 362 366 370 370 371 372 373 373 373 370 366 369 369 372 373 367 368 325 322 362 355 354 353 353 356 331 328 326 327 365 362 363
321 326 326 333 340 354 360 361 358 362 368 367 366 368 371 366 366 372 372 372 372 370 370 368 367 363 372 341 325 320 325 346 358 355 349 352 324 320 322 327 333 329 334
318 321 323 328 328 338 354 356 368 369 368 368 367 368 369 368 369 370 370 365 370 360 360 359 357 356 357 364 327 318 319 324 348 358 343 328 319 314 320 318 324 324 353
315 318 321 324 324 330 333 341 345 362 365 367 367 367 366 366 367 364 363 360 358 358 356 356 355 355 355 356 363 353 337 325 337 342 352 346 335 325 339 348 337 353 360
315 319 320 320 322 325 325 328 331 335 359 359 360 363 361 361 363 363 360 359 363 351 357 354 355 355 356 357 345 348 362 360 349 352 359 356 356 358 360 363 365 366 365
316 318 321 321 321 322 321 324 328 327 344 355 356 356 357 359 359 358 355 316 323 313 313 314 334 357 322 315 315 315 311 316 318 351 357 357 359 360 360 361 359 363 358
Wind_Speed
23 23 21 21 20 19 18 17 15 12 11 9 10 9 9 7 5 5 6 7 4 7 5 1 5 3 2 3 2 3 3 1 1 2 4 3 4 3 5 6 3 7 8
23 23 22 22 21 20 19 17 15 13 11 9 8 8 7 9 8 7 8 8 7 7 6 5 4 3 4 3 4 4 4 4 3 3 3 5 6 6 4 1 1 2 3
26 24 25 23 22 22 20 18 15 15 13 12 8 7 7 5 7 7 7 8 9 8 3 3 7 5 4 6 5 4 4 4 3 6 4 4 3 4 5 5 7 4 5
23 25 25 25 25 22 21 18 17 15 14 13 12 12 9 9 8 7 9 10 9 9 9 6 5 5 3 1 5 7 7 5 6 4 3 4 5 4 1 6 4 5 5
25 27 27 26 25 23 22 20 18 16 15 14 12 12 12 9 9 8 11 4 8 7 8 8 7 5 8 5 1 1 3 5 3 5 3 0 2 4 2 4 7 6 5
24 25 26 25 23 22 22 21 20 18 17 16 16 14 14 11 9 9 9 9 8 9 8 9 7 7 5 5 6 4 5 4 6 3 2 5 5 6 4 2 4 2 2
22 23 24 25 25 26 25 21 21 20 19 18 17 14 13 13 8 10 9 10 9 9 12 8 8 8 7 6 5 6 4 5 5 4 4 5 3 3 4 4 5 3 3
22 23 24 24 25 26 24 22 22 22 21 20 18 16 14 11 11 10 9 9 8 8 11 10 9 9 10 8 7 8 7 7 6 5 6 8 5 4 4 4 5 5 6
23 24 25 24 24 24 24 23 21 22 21 21 17 17 15 16 13 12 11 8 7 7 8 9 10 10 9 8 8 7 7 6 6 5 7 6 8 5 4 4 5 5 6
24 22 23 25 24 25 24 23 22 23 23 22 20 18 18 17 14 12 11 11 9 9 4 9 10 10 9 9 8 8 10 7 7 9 9 6 8 6 4 6 6 6 6
21 21 22 23 24 23 23 24 23 22 22 21 20 19 18 19 17 14 13 12 9 8 10 9 10 10 10 10 9 9 7 10 9 8 6 7 7 8 7 6 6 7 7
18 19 22 22 23 24 24 24 25 25 23 21 20 20 19 19 18 17 16 14 13 11 10 11 11 11 11 10 11 12 10 10 9 10 9 10 9 10 8 8 8 8 7
10 12 14 19 20 23 21 23 23 25 24 22 23 20 20 19 19 18 17 16 15 14 14 13 12 12 12 11 12 12 12 11 11 11 10 11 10 9 10 7 8 8 8
7 11 11 16 18 19 20 18 22 23 23 23 23 21 21 20 19 17 17 17 15 15 14 14 13 13 13 13 13 13 12 11 12 11 11 11 11 10 9 9 9 9 10
8 4 11 14 17 18 17 19 20 19 21 20 21 21 20 19 18 19 18 17 16 15 15 14 14 14 14 13 14 13 12 12 12 11 11 12 12 10 8 9 9 9 10
8 7 9 10 8 15 17 17 19 19 19 20 21 19 19 19 20 19 18 17 16 16 16 15 15 15 14 16 15 15 12 12 12 12 12 12 10 10 12 12 13 12 10
9 10 10 9 11 11 15 17 18 17 18 17 18 18 18 19 19 19 18 18 17 16 16 16 15 16 16 12 15 17 13 12 12 12 11 11 12 13 14 15 17 16 15
12 11 11 11 10 12 16 16 19 19 18 19 18 18 19 19 18 18 18 17 16 17 16 16 16 15 14 12 13 14 14 13 14 12 12 13 14 13 11 11 12 13 13
14 13 13 16 12 13 15 15 18 19 19 19 20 20 19 19 19 19 18 16 15 15 15 15 16 16 15 15 16 14 15 14 15 13 14 15 15 14 13 14 15 15 14
13 14 17 18 13 15 16 17 16 18 21 22 20 18 18 18 19 19 18 16 15 16 15 16 16 16 15 14 16 16 13 14 13 14 15 15 17 13 12 13 14 15 13
16 16 14 14 16 15 16 16 18 20 18 18 18 17 18 18 17 16 15 15 16 15 14 14 13 15 15 14 17 19 14 13 13 13 12 12 21 22 20 15 14 14 9
17 17 14 12 16 19 17 12 16 12 13 15 17 17 17 16 15 16 14 14 13 13 13 13 12 13 13 13 15 19 21 15 14 13 12 12 12 20 21 16 15 12 10
14 15 14 12 15 17 19 7 10 10 12 14 14 15 16 16 14 16 15 14 13 14 14 13 14 13 13 13 18 20 21 20 13 13 8 7 2 7 5 9 7 11 9
13 12 13 14 14 16 18 18 17 6 10 13 13 14 15 15 15 14 14 14 14 14 13 13 13 12 12 12 12 13 12 16 13 15 14 12 8 7 7 4 9 9 10
11 10 11 12 14 14 15 17 17 17 6 11 14 14 14 15 15 13 14 14 14 11 14 12 12 12 12 12 13 10 12 12 14 11 11 12 12 12 12 11 11 8 7
10 7 8 10 13 14 15 16 18 17 14 6 8 12 13 14 14 14 9 8 10 11 8 7 4 1 13 11 7 12 14 9 12 11 11 12 12 12 11 7 7 10 10
Wind_Direction
180 175 191 184 182 183 179 187 183 166 174 177 189 189 178 198 193 206 110 143 151 150 165 161 164 238 84 222 172 145 215 86 24 130 116 131 179 237 145 202 189 129 203
180 178 192 186 189 186 183 184 186 171 189 191 197 196 201 182 204 193 156 198 179 155 177 143 140 187 157 167 208 124 284 136 122 266 227 165 156 171 175 210 229 30 198
184 185 187 191 193 188 187 184 187 177 188 197 193 199 198 218 205 144 171 191 183 176 189 198 137 174 252 165 205 257 260 310 180 310 288 23 244 119 172 161 226 105 252
193 186 187 194 193 191 189 184 185 186 188 208 183 187 199 201 185 197 190 157 193 188 159 188 183 190 207 279 197 222 308 238 147 194 259 357 26 29 6 166 161 207 235
189 189 191 192 195 193 190 189 182 189 194 195 209 181 218 197 187 206 135 201 169 197 195 179 181 190 198 180 275 143 279 282 311 200 180 332 196 186 308 240 164 194 188
187 195 192 190 196 193 193 192 183 189 195 191 213 194 195 227 204 198 171 185 188 187 211 187 183 202 219 173 191 187 226 284 320 323 216 206 222 180 253 276 205 20 227
195 192 190 193 192 195 194 192 183 187 191 191 196 209 206 213 238 176 214 196 204 199 165 199 193 189 218 174 171 197 223 213 244 251 242 233 244 287 297 318 294 289 298
193 196 196 194 192 198 192 194 185 187 189 194 195 200 203 207 218 205 207 216 223 199 145 178 204 222 184 203 191 194 222 194 211 238 265 304 226 200 243 271 311 297 281
199 193 195 198 197 195 194 192 189 187 192 193 191 192 202 213 202 212 211 235 224 225 172 195 198 215 214 210 177 232 207 150 223 204 228 249 265 219 234 251 257 276 292
192 200 198 196 199 197 196 193 194 190 191 194 192 193 192 199 219 202 209 210 221 234 220 196 207 215 217 211 214 215 195 176 220 233 180 228 271 283 236 262 262 259 269
193 197 197 196 198 199 197 197 194 193 193 198 196 197 193 196 201 214 199 211 223 224 206 223 205 216 213 208 206 240 250 192 209 256 267 209 245 274 277 246 238 254 259
208 197 190 194 192 198 198 198 198 199 196 200 198 198 196 197 199 203 210 199 207 208 220 211 214 213 216 210 207 219 226 221 227 222 234 242 235 216 245 273 283 284 296
242 223 189 187 195 194 201 199 199 199 200 200 200 198 202 200 201 197 203 201 199 203 211 212 215 210 213 214 212 219 225 232 216 224 225 232 235 241 262 266 270 256 234
335 300 201 189 190 197 193 199 199 202 200 197 205 201 199 201 201 198 198 203 200 199 206 209 212 213 212 213 220 216 224 228 227 229 236 237 238 238 238 242 250 257 267
322 289 258 211 189 192 193 193 206 202 200 198 200 201 199 200 200 201 200 199 203 201 205 207 210 212 215 215 213 222 218 218 229 239 234 234 243 253 253 256 247 252 248
335 332 324 312 215 192 198 193 202 205 204 196 200 199 195 196 201 201 200 200 199 203 203 210 211 213 219 211 199 206 221 225 224 228 232 242 248 239 234 235 247 260 274
333 331 321 303 296 273 203 207 198 209 204 205 196 197 193 197 201 198 197 198 199 199 206 209 212 216 220 210 196 199 220 225 223 228 232 237 243 223 237 223 230 240 238
326 322 308 304 285 264 268 203 206 198 212 203 197 196 194 198 197 199 201 197 197 202 204 210 211 216 220 204 194 195 218 228 240 242 233 232 245 254 259 254 248 240 237
320 313 310 295 293 281 279 267 197 200 202 208 206 196 196 194 198 200 198 198 201 205 210 211 212 215 222 198 192 184 220 229 235 238 238 243 249 247 222 240 253 260 264
334 320 315 312 295 276 248 251 235 202 200 207 203 197 198 197 201 201 199 197 200 208 213 214 213 214 220 199 198 193 224 228 230 229 234 231 242 242 221 234 249 255 257
341 330 332 316 304 289 275 232 239 208 206 199 200 199 198 200 202 201 202 200 201 208 212 219 215 218 216 219 190 193 218 232 228 237 240 233 210 221 228 213 241 249 264
350 344 342 338 337 328 302 226 226 213 188 192 195 197 195 200 194 199 198 201 201 207 209 213 221 219 221 215 189 194 211 224 237 246 246 240 221 207 216 216 231 236 252
348 350 342 353 351 348 344 253 224 166 179 189 193 196 194 196 203 191 194 196 199 211 212 210 219 227 217 217 203 194 202 222 236 242 245 69 129 183 220 231 230 214 230
339 346 355 355 349 357 3 5 0 242 191 192 199 196 194 197 207 187 193 203 202 205 218 214 220 223 225 227 212 202 204 223 217 240 256 267 294 287 275 230 209 221 236
324 340 350 355 357 2 0 1 359 350 252 204 206 198 197 193 197 206 197 202 211 207 206 219 213 223 224 226 221 205 190 209 213 221 229 233 235 242 243 240 243 241 233
305 338 353 359 358 4 1 358 359 357 332 224 211 198 204 184 201 202 171 61 124 126 100 68 12 313 24 50 79 109 110 98 168 195 228 228 232 237 236 241 249 255 239